Location: Aalen
(48.8330°N, 10.1000°E)
Time: 11:51:13
(UTC+02:00)

S-56A Canister/Altair - Pass Details

Date: 10 August 2021
Orbit: 632 x 2500 km, 38.9° (Epoch: 21 September)

Event Time Altitude Azimuth Distance (km) Brightness Sun altitude
Rises 12:13:03 0° 204° (SSW) 4,309 11.7 53.5°
Reaches altitude 10° 12:16:12 10° 192° (SSW) 3,608 11.5 53.8°
Maximum altitude 12:23:49 27° 140° (SE) 3,064 11.8 54.3°
Drops below altitude 10° 12:33:43 10° 90° (E) 4,797 11.9 55.0°
Sets 12:38:41 0° 81° (E) 6,005 12.2 55.3°
